Dutch Harbor, AK

7:10 PM AKST on February 23, 2017 (GMT -0900)
Unalaska

Weather History for PADU - January, 2013

Change the Weather History Date:

Thursday, January 3, 2013

  Actual Average Record
Temperature  
Mean Temperature 34 °F -  
Max Temperature 36 °F 36 °F 43 °F (1987)
Min Temperature 32 °F 27 °F 17 °F (2007)
Degree Days  
Heating Degree Days 30    
Moisture  
Dew Point 27 °F    
Average Humidity 76    
Maximum Humidity 92    
Minimum Humidity 59    
Precipitation  
Precipitation 0.01 in - - ()
Sea Level Pressure  
Sea Level Pressure 29.14 in    
Wind  
Wind Speed 10 mph (WSW)    
Max Wind Speed 16 mph    
Max Gust Speed 25 mph    
Visibility 8 miles    
Events Rain , Snow    
Averages and records for this station are not official NWS values.
T = Trace of Precipitation, MM = Missing Value Source: NWS Daily Summary

Daily Weather History Graph

Daily Weather History Graph

Search for Another Location

Airport or City:

Trip Planner

Search our weather history database for the weather conditions in past years. The results will help you decide how hot, cold, wet, or windy it might be!

Date:

Astronomy

Jan. 03, 2013 Rise Set
Actual Time 10:23 AM AKST 5:58 PM AKST
Civil Twilight 9:40 AM AKST 6:41 PM AKST
Nautical Twilight 8:55 AM AKST 7:26 PM AKST
Astronomical Twilight 8:12 AM AKST 8:09 PM AKST
Moon 12:40 AM AKST (1/3) 12:39 PM AKST (1/3)
Length of Visible Light 9h 00m
Length of Day
7h 34m
Waning Gibbous, 64% of the Moon is Illuminated
Jan 3
Waning Gibbous
Jan 4
Last Quarter
Jan 11
New
Jan 18
First Quarter
Jan 26
Full

Hourly Weather History & Observations

Time (AKST) Temp. Windchill Dew Point Humidity Pressure Visibility Wind Dir Wind Speed Gust Speed Precip Events Conditions
12:01 AM 33.8 °F 29.6 °F 30.2 °F 87% 28.98 in 3.0 mi West 4.6 mph - N/A Snow Light Snow
12:16 AM 33.8 °F 27.0 °F 28.4 °F 81% 28.98 in 10.0 mi WNW 8.1 mph - N/A Rain Light Rain
12:56 AM 33.1 °F 24.9 °F 30.9 °F 92% 29.01 in 6.0 mi WSW 10.4 mph - N/A Snow Light Snow
1:09 AM 33.8 °F 25.3 °F 28.4 °F 81% 28.99 in 10.0 mi West 11.5 mph - N/A Rain Light Rain
1:56 AM 36.0 °F 28.0 °F 27.0 °F 70% 29.02 in 10.0 mi WNW 11.5 mph - N/A Rain Light Rain
2:56 AM 35.1 °F 26.4 °F 28.0 °F 76% 29.03 in 10.0 mi WNW 12.7 mph - N/A   Overcast
3:56 AM 35.1 °F 25.5 °F 27.0 °F 72% 29.04 in 10.0 mi West 15.0 mph - N/A   Mostly Cloudy
4:56 AM 34.0 °F 25.0 °F 27.0 °F 75% 29.06 in 10.0 mi WSW 12.7 mph - N/A Rain Light Rain
5:10 AM 33.8 °F 24.8 °F 28.4 °F 81% 29.04 in 10.0 mi WSW 12.7 mph - N/A Rain Light Rain
5:56 AM 35.1 °F 26.9 °F 28.0 °F 76% 29.07 in 10.0 mi West 11.5 mph - N/A   Mostly Cloudy
6:30 AM 35.6 °F 29.2 °F 26.6 °F 70% 29.06 in 10.0 mi WSW 8.1 mph - N/A   Clear
6:56 AM 35.1 °F 25.2 °F 28.0 °F 76% 29.09 in 10.0 mi West 16.1 mph - N/A Rain Light Rain
7:00 AM 35.6 °F 26.6 °F 28.4 °F 75% 29.07 in 2.0 mi West 13.8 mph 19.6 mph N/A Snow Light Snow
7:07 AM 33.8 °F 27.0 °F 28.4 °F 81% 29.07 in 2.0 mi West 8.1 mph 19.6 mph N/A Snow Light Snow
7:23 AM 33.8 °F 26.4 °F 30.2 °F 87% 29.08 in 5.0 mi West 9.2 mph - N/A Snow Light Snow
7:25 AM 33.8 °F 25.3 °F 30.2 °F 87% 29.08 in 5.0 mi West 11.5 mph - N/A Snow Light Snow
7:31 AM 33.8 °F 24.8 °F 30.2 °F 87% 29.08 in 1.0 mi WSW 12.7 mph - N/A Snow Light Snow
7:40 AM 33.8 °F 27.0 °F 30.2 °F 87% 29.08 in 1.5 mi SW 8.1 mph - N/A Snow Light Snow
7:56 AM 33.1 °F 26.9 °F 30.0 °F 89% 29.11 in 1.5 mi West 6.9 mph - N/A Snow Light Snow
8:08 AM 33.8 °F 27.7 °F 30.2 °F 87% 29.09 in 2.0 mi WSW 6.9 mph - 0.00 in Snow Light Snow
8:32 AM 33.8 °F 24.8 °F 28.4 °F 81% 29.10 in 1.0 mi West 12.7 mph - 0.01 in Snow Light Snow
8:46 AM 33.8 °F 25.8 °F 30.2 °F 87% 29.11 in 2.5 mi West 10.4 mph - 0.01 in Snow Light Snow
8:51 AM 33.8 °F 26.4 °F 30.2 °F 87% 29.11 in 5.0 mi West 9.2 mph - 0.01 in Snow Light Snow
8:56 AM 33.1 °F 26.9 °F 30.0 °F 89% 29.13 in 5.0 mi West 6.9 mph - 0.01 in Snow Light Snow
9:08 AM 33.8 °F 24.8 °F 28.4 °F 81% 29.11 in 6.0 mi West 12.7 mph - 0.00 in Snow Light Snow
9:33 AM 33.8 °F 23.9 °F 28.4 °F 81% 29.13 in 7.0 mi West 15.0 mph - 0.00 in Snow Light Snow
9:56 AM 34.0 °F 24.2 °F 27.0 °F 75% 29.15 in 6.0 mi WSW 15.0 mph - 0.00 in Snow Light Snow
10:39 AM 33.8 °F 25.3 °F 26.6 °F 75% 29.15 in 10.0 mi West 11.5 mph - 0.00 in   Mostly Cloudy
10:56 AM 34.0 °F 28.0 °F 26.1 °F 73% 29.18 in 10.0 mi West 6.9 mph - 0.00 in Rain Light Rain
11:17 AM 33.8 °F 28.6 °F 26.6 °F 75% 29.17 in 10.0 mi West 5.8 mph - 0.00 in   Scattered Clouds
11:56 AM 34.0 °F 26.6 °F 26.1 °F 73% 29.20 in 10.0 mi WSW 9.2 mph - 0.00 in Rain Light Rain
12:56 PM 36.0 °F 27.1 °F 24.1 °F 62% 29.21 in 10.0 mi SSW 13.8 mph 25.3 mph 0.00 in   Scattered Clouds
1:56 PM 36.0 °F 28.0 °F 23.0 °F 59% 29.22 in 10.0 mi SW 11.5 mph 19.6 mph N/A   Scattered Clouds
2:39 PM 33.8 °F 24.8 °F 28.4 °F 81% 29.21 in 5.0 mi South 12.7 mph - 0.00 in Snow Light Snow
2:56 PM 34.0 °F 26.6 °F 28.0 °F 79% 29.23 in 9.0 mi SSW 9.2 mph 19.6 mph 0.00 in Snow Light Snow
3:56 PM 36.0 °F 28.0 °F 26.1 °F 67% 29.24 in 10.0 mi SW 11.5 mph - 0.00 in Snow Light Snow
4:56 PM 34.0 °F 27.2 °F 27.0 °F 75% 29.26 in 10.0 mi SSW 8.1 mph - 0.00 in Snow Light Snow
5:08 PM 35.6 °F 28.0 °F 26.6 °F 70% 29.24 in 10.0 mi SSW 10.4 mph - 0.00 in   Scattered Clouds
5:09 PM 35.6 °F 28.0 °F 26.6 °F 70% 29.24 in 10.0 mi SW 10.4 mph - 0.00 in   Scattered Clouds
5:56 PM 35.1 °F 27.9 °F 26.1 °F 70% 29.27 in 10.0 mi SSW 9.2 mph - 0.00 in   Scattered Clouds
6:47 PM 35.6 °F 27.1 °F 24.8 °F 65% 29.27 in 10.0 mi SW 12.7 mph 21.9 mph N/A   Partly Cloudy
6:51 PM 35.6 °F 26.6 °F 24.8 °F 65% 29.27 in 10.0 mi SW 13.8 mph 21.9 mph N/A   Partly Cloudy
6:56 PM 36.0 °F 28.5 °F 25.0 °F 64% 29.29 in 10.0 mi SSW 10.4 mph - N/A   Partly Cloudy
7:56 PM 35.1 °F 27.9 °F 24.1 °F 64% 29.30 in 10.0 mi SW 9.2 mph - N/A   Partly Cloudy
8:56 PM 33.1 °F 30.0 °F 23.0 °F 66% 29.31 in 10.0 mi East 3.5 mph - N/A   Partly Cloudy
9:56 PM 34.0 °F 28.8 °F 21.9 °F 61% 29.32 in 10.0 mi SSE 5.8 mph - N/A   Clear
11:56 PM 32.0 °F 26.4 °F 23.0 °F 69% 29.33 in 10.0 mi SSE 5.8 mph - N/A   Clear